Regional Weather Roundup
Issued by NWS

Home | Current Version | Previous Version | Text Only | Print | Product List | Glossary Off
Versions: 1 2 3 4 5 6 7 8 9 10 11 12 13 14 15 16 17 18 19 20 21 22 23 24 25 26 27 28 29 30 31 32 33 34 35 36 37 38 39 40 41 42 43 44 45 46 47 48 49 50

000
ASUS43 KLMK 280302
RWRKY
KENTUCKY REGIONAL WEATHER ROUNDUP
NATIONAL WEATHER SERVICE LOUISVILLE KY
1000 PM EST FRI FEB 27 2015

NOTE "FAIR" INDICATES FEW OR NO CLOUDS BELOW 12,000 FEET
WITH NO SIGNIFICANT WEATHER AND/OR OBSTRUCTIONS TO VISIBILITY.

KYZ001>023-026-027-061>063-070>075-280400-
WESTERN AND SOUTH CENTRAL KENTUCKY

CITY           SKY/WX    TMP DP  RH WIND       PRES   REMARKS
PADUCAH        CLOUDY    22  10  60 E8        30.64R WCI  12
HENDERSON      CLOUDY    19   7  58 N7        30.66R WCI  10
OWENSBORO      CLOUDY    21   7  55 NE8       30.66R WCI  11
HOPKINSVILLE   CLOUDY    22  10  60 NE8       30.62R WCI  13
BOWLING GREEN  CLOUDY    24   7  48 NE5       30.63R WCI  18
GLASGOW        NOT AVBL
$$

KYZ024-025-028>034-038-045-046-053-280400-
NORTH CENTRAL KENTUCKY

CITY           SKY/WX    TMP DP  RH WIND       PRES   REMARKS
LOUISVILLE/SDF CLOUDY    22   3  44 NE7       30.65S WCI  13
LOUISVILLE/LOU CLOUDY    22   2  42 NE8       30.66R WCI  12
FORT KNOX      CLOUDY    22   3  45 NE6       30.61R WCI  14
$$

KYZ035>037-039>044-047>052-055>060-089>105-280400-
NORTHEAST KENTUCKY

CITY           SKY/WX    TMP DP  RH WIND       PRES   REMARKS
LEXINGTON      FAIR      19   7  59 NE3       30.63R
COVINGTON      CLOUDY    15   2  56 N6        30.64S WCI   6
FRANKFORT      MOCLDY    18   7  62 CALM      30.62S
$$

KYZ054-064>069-076>088-106>120-280400-
SOUTHEAST KENTUCKY

CITY           SKY/WX    TMP DP  RH WIND       PRES   REMARKS
JACKSON        CLEAR     18   5  57 NE6       30.58R WCI  10
LONDON         PTCLDY    20   5  52 VRB7      30.58R WCI  11
SOMERSET       NOT AVBL
MIDDLESBORO    PTCLDY    21  14  74 CALM      30.56R
MONTICELLO     MOCLDY    21   9  60 NE8       30.63R WCI  11
$$



USA.gov is the U.S. government's official web portal to all federal, state and local government web resources and services.